Location: Mount Vernon
(38.3173°N, 88.9031°W)
Time: 13:40:16
(UTC+00:00)

Daily predictions for brighter satellites

Satellite Brightness Start Highest point End
(mag) Time Altitude Azimuth Time Altitude Azimuth Time Altitude Azimuth
Cosmos 2369 Rocket 3.2 12:02:41 10° WSW 12:07:01 23° NW 12:11:24 10° N
Cosmos 1408 Rocket 3.6 12:03:46 10° SSW 12:07:58 53° W 12:12:11 10° N
FengYun 1-2 T 4.3 12:08:08 10° NNE 12:13:40 87° ESE 12:19:08 10° SSW
USA 215 3.3 12:08:19 10° SE 12:14:51 78° SW 12:21:24 10° NW
BREEZE-M DEB 3.3 12:12:07 10° WSW 12:15:07 71° NNW 12:23:58 10° NE
Cosmos 1743 Rocket 3.6 12:11:06 10° S 12:15:30 88° W 12:19:53 10° N
Cosmos 2279 Rocket 4.5 12:10:10 10° NNW 12:15:47 38° W 12:21:24 10° SSW
H-2A R/B 3.5 12:14:10 10° NNE 12:18:47 40° E 12:23:25 10° SSE
Cosmos 1602 4.3 12:16:12 10° S 12:19:56 61° E 12:23:42 10° NNE
Nadezhda 4 Rocket 4.0 12:15:54 10° SSW 12:21:56 59° W 12:28:04 10° N
AQUARIUS 4.3 12:19:52 10° NNE 12:24:23 87° ESE 12:28:53 10° SSW
DMSP B5D2-2 4.3 12:21:08 10° S 12:26:11 50° W 12:31:15 10° NNW
Cosmos 1515 Rocket 3.9 12:24:01 10° NNW 12:28:10 44° W 12:32:16 10° SSW
USA 32 4.1 12:26:05 10° N 12:31:21 89° E 12:36:36 10° S
SL-8 R/B 4.0 12:26:57 10° NW 12:31:43 62° NNE 12:36:26 10° ESE
Meteor 1-20 Rocket 4.3 12:26:17 10° S 12:31:49 87° W 12:37:30 10° N
BREEZE-M DEB (TANK) 4.5 12:20:57 10° NW 12:33:41 36° WSW 12:38:04 10° S
SMAP 3.4 22:55:55 10° SE 23:00:19 45° ENE 23:04:45 10° N
Cosmos 540 Rocket 3.8 22:55:29 10° S 23:00:20 47° ESE 23:05:13 10° NNE
USA 234 3.6 22:55:00 10° ESE 23:01:06 44° NE 23:07:13 10° NW
ADEOS 4.5 22:56:04 10° S 23:01:10 55° WSW 23:06:19 10° NNW
Cosmos 2221 3.6 23:00:00 10° SSW 23:04:06 48° W 23:08:16 10° N
CZ-4B R/B 4.3 23:01:07 10° ESE 23:05:07 21° ENE 23:09:05 10° NNE
Cosmos 1842 Rocket 4.4 23:00:56 10° SSW 23:05:18 56° W 23:09:43 10° N
Sich 1 4.0 23:02:10 10° NNE 23:05:46 25° ENE 23:09:21 10° SE
Cosmos 1805 Rocket 4.2 23:01:55 10° NNE 23:05:51 33° ENE 23:09:45 10° SE
NOSS 3-1 (A) 4.2 22:59:17 10° NNW 23:06:54 59° NE 23:15:38 10° SE
NOSS 3-1 (C) 4.3 22:59:42 10° NNW 23:07:32 89° ENE 23:16:31 10° SSE
GPS 2-04 Rocket1 3.2 23:04:08 10° WSW 23:08:12 59° S 23:12:14 10° E
Cosmos 44 3.4 23:06:07 10° NNW 23:10:48 76° WSW 23:15:12 10° SSE
Cosmos 468 Rocket 4.2 23:06:12 10° SSW 23:11:19 78° WNW 23:16:32 10° NNE
CZ-2C R/B 3.6 23:07:33 10° NE 23:11:49 25° E 23:16:02 10° SSE
CZ-2C R/B 3.2 23:07:40 10° S 23:12:39 73° WSW 23:17:28 10° NNW
Meteor 1-20 Rocket 4.3 23:07:39 10° N 23:13:29 64° E 23:19:15 10° SSE
Cosmos 1898 Rocket 3.5 23:12:54 10° N 23:18:05 57° ENE 23:23:11 10° SSE
Nadezhda 4 Rocket 4.3 23:12:43 10° N 23:19:03 79° W 23:25:22 10° S
Cosmos 2084 3.6 23:14:49 10° NNW 23:19:07 56° NE 23:23:33 10° SE
Cosmos 1666 4.3 23:17:52 10° NE 23:20:02 15° ENE 23:22:10 10° ESE
AQUARIUS 4.1 23:16:54 10° SSE 23:21:19 63° ENE 23:25:46 10° N
CZ-4C R/B 3.7 23:21:31 10° NNW 23:27:47 29° NE 23:34:49 10° ESE
Cosmos 1939 Rocket 3.2 23:25:41 10° S 23:29:47 75° WSW 23:33:54 10° NNW
Cosmos 1812 3.3 23:29:17 10° SSE 23:32:48 36° E 23:36:22 10° NNE
Cosmos 1092 Rocket 4.0 23:27:49 10° N 23:34:12 80° E 23:40:31 10° S
H-2A R/B 2.2 23:29:43 10° SSE 23:34:45 51° ENE 23:39:40 10° N
Cosmos 1428 Rocket 4.4 23:32:11 10° N 23:38:20 74° E 23:44:29 10° SSE
USA 276 1.9 23:35:49 10° NW 23:38:56 70° NE 23:41:29 14° ESE
COSMO-SKYMED 1 2.9 23:35:02 10° NNE 23:39:11 43° E 23:43:18 10° S
BREEZE-M DEB (TANK) 4.3 23:38:32 10° WNW 23:46:03 60° SW 23:48:58 10° SE
Cosmos 921 Rocket 4.1 23:43:52 10° SSE 23:47:03 22° E 23:47:24 21° E
Cosmos 2142 Rocket 4.4 23:42:38 10° S 23:48:40 63° E 23:54:47 10° NNE
Cosmos 1633 Rocket 3.6 23:45:37 10° NNE 23:49:37 34° ENE 23:53:37 10° SE
Meteor 1-14 Rocket 4.5 23:44:13 10° N 23:49:52 49° ENE 23:55:34 10° SSE
Cosmos 841 Rocket 3.7 23:46:17 10° SSW 23:51:26 74° WNW 23:56:36 10° NNE
Cosmos 1697 Rocket 2.7 23:46:59 10° NNW 23:52:37 83° WSW 23:58:13 10° SSE
Cosmos 1602 4.2 23:49:14 10° NNW 23:53:03 62° W 23:56:52 10° S
Cosmos 1782 3.4 23:51:59 10° SSW 23:55:55 57° W 23:59:51 10° N
